owner,sensor,date,latitude,longitude,vertical_datum,wind_speed,wind_to_direction,wind_speed_of_gust,qcFlag 
NDBC,ioos:station:NOAA.NDBC:BURL1:1,2019-02-01T00:00:00Z,28.9060,-89.4290,30.5,9.8,100.0,10.3,'1111122,1111122,1111122' 
NDBC,ioos:station:NOAA.NDBC:BURL1:1,2019-02-01T01:00:00Z,28.9060,-89.4290,30.5,10.3,90.0,10.8,'1111122,1111122,1111122' 
NDBC,ioos:station:NOAA.NDBC:BURL1:1,2019-02-01T03:00:00Z,28.9060,-89.4290,30.5,10.8,90.0,10.8,'1111122,1111122,1111122' 
NDBC,ioos:station:NOAA.NDBC:BURL1:1,2019-02-01T05:00:00Z,28.9060,-89.4290,30.5,9.3,100.0,9.3,'1111122,1111122,1111122' 
NDBC,ioos:station:NOAA.NDBC:BURL1:1,2019-02-01T06:00:00Z,28.9060,-89.4290,30.5,9.8,80.0,10.3,'1111122,1111122,1111122' 
NDBC,ioos:station:NOAA.NDBC:BURL1:1,2019-02-01T07:00:00Z,28.9060,-89.4290,30.5,10.3,80.0,10.3,'1111122,1111122,1111122' 
NDBC,ioos:station:NOAA.NDBC:BURL1:1,2019-02-01T09:00:00Z,28.9060,-89.4290,30.5,6.7,80.0,7.2,'1111122,1111122,1111122' 
NDBC,ioos:station:NOAA.NDBC:BURL1:1,2019-02-01T10:00:00Z,28.9060,-89.4290,30.5,6.7,100.0,6.7,'1111122,1111122,1111122' 
NDBC,ioos:station:NOAA.NDBC:BURL1:1,2019-02-01T11:00:00Z,28.9060,-89.4290,30.5,7.2,100.0,7.2,'1111122,1111122,1111122' 
NDBC,ioos:station:NOAA.NDBC:BURL1:1,2019-02-01T12:00:00Z,28.9060,-89.4290,30.5,8.2,90.0,8.8,'1111122,1111122,1111122' 
NDBC,ioos:station:NOAA.NDBC:BURL1:1,2019-02-01T14:00:00Z,28.9060,-89.4290,30.5,8.8,110.0,8.8,'1111122,1111122,1111122' 
NDBC,ioos:station:NOAA.NDBC:BURL1:1,2019-02-01T15:00:00Z,28.9060,-89.4290,30.5,13.9,110.0,14.4,'1111122,1111122,1111122' 
NDBC,ioos:station:NOAA.NDBC:BURL1:1,2019-02-01T16:00:00Z,28.9060,-89.4290,30.5,10.3,110.0,10.8,'1111122,1111122,1111122' 
NDBC,ioos:station:NOAA.NDBC:BURL1:1,2019-02-01T18:00:00Z,28.9060,-89.4290,30.5,7.7,60.0,8.2,'1111122,1111122,1111122' 
NDBC,ioos:station:NOAA.NDBC:BURL1:1,2019-02-01T19:00:00Z,28.9060,-89.4290,30.5,9.8,70.0,9.8,'1111122,1111122,1111122' 
NDBC,ioos:station:NOAA.NDBC:BURL1:1,2019-02-01T21:00:00Z,28.9060,-89.4290,30.5,8.8,50.0,9.3,'1111122,1111122,1111122' 
NDBC,ioos:station:NOAA.NDBC:BURL1:1,2019-02-01T23:00:00Z,28.9060,-89.4290,30.5,9.3,50.0,9.3,'1111122,1111122,1111122' 
NDBC,ioos:station:NOAA.NDBC:BURL1:1,2019-02-02T01:00:00Z,28.9060,-89.4290,30.5,10.8,40.0,10.8,'1111122,1111122,1111122' 
NDBC,ioos:station:NOAA.NDBC:BURL1:1,2019-02-02T03:00:00Z,28.9060,-89.4290,30.5,11.3,50.0,11.3,'1111122,1111122,1111122' 
NDBC,ioos:station:NOAA.NDBC:BURL1:1,2019-02-02T04:00:00Z,28.9060,-89.4290,30.5,10.3,50.0,10.3,'1111122,1111122,1111122' 
NDBC,ioos:station:NOAA.NDBC:BURL1:1,2019-02-02T05:00:00Z,28.9060,-89.4290,30.5,9.8,60.0,10.3,'1111122,1111122,1111122' 
NDBC,ioos:station:NOAA.NDBC:BURL1:1,2019-02-02T07:00:00Z,28.9060,-89.4290,30.5,9.3,50.0,9.3,'1111122,1111122,1111122' 
NDBC,ioos:station:NOAA.NDBC:BURL1:1,2019-02-02T08:00:00Z,28.9060,-89.4290,30.5,9.8,40.0,10.3,'1111122,1111122,1111122' 
NDBC,ioos:station:NOAA.NDBC:BURL1:1,2019-02-02T09:00:00Z,28.9060,-89.4290,30.5,8.8,40.0,9.3,'1111122,1111122,1111122' 
NDBC,ioos:station:NOAA.NDBC:BURL1:1,2019-02-02T10:00:00Z,28.9060,-89.4290,30.5,7.2,30.0,7.7,'1111122,1111122,1111122' 
NDBC,ioos:station:NOAA.NDBC:BURL1:1,2019-02-02T11:00:00Z,28.9060,-89.4290,30.5,7.2,40.0,8.8,'1111122,1111122,1111122' 
NDBC,ioos:station:NOAA.NDBC:BURL1:1,2019-02-02T12:00:00Z,28.9060,-89.4290,30.5,8.2,30.0,8.8,'1111122,1111122,1111122' 
NDBC,ioos:station:NOAA.NDBC:BURL1:1,2019-02-02T13:00:00Z,28.9060,-89.4290,30.5,8.2,30.0,8.8,'1111122,1111122,1111122' 
NDBC,ioos:station:NOAA.NDBC:BURL1:1,2019-02-02T14:00:00Z,28.9060,-89.4290,30.5,8.8,40.0,9.3,'1111122,1111122,1111122' 
NDBC,ioos:station:NOAA.NDBC:BURL1:1,2019-02-02T16:00:00Z,28.9060,-89.4290,30.5,7.2,30.0,7.7,'1111122,1111122,1111122' 
NDBC,ioos:station:NOAA.NDBC:BURL1:1,2019-02-02T17:00:00Z,28.9060,-89.4290,30.5,8.8,30.0,9.3,'1111122,1111122,1111122' 
NDBC,ioos:station:NOAA.NDBC:BURL1:1,2019-02-02T18:00:00Z,28.9060,-89.4290,30.5,8.2,30.0,8.8,'1111122,1111122,1111122' 
NDBC,ioos:station:NOAA.NDBC:BURL1:1,2019-02-02T19:00:00Z,28.9060,-89.4290,30.5,7.7,30.0,8.8,'1111122,1111122,1111122' 
NDBC,ioos:station:NOAA.NDBC:BURL1:1,2019-02-02T20:00:00Z,28.9060,-89.4290,30.5,8.2,40.0,8.8,'1111122,1111122,1111122' 
NDBC,ioos:station:NOAA.NDBC:BURL1:1,2019-02-02T21:00:00Z,28.9060,-89.4290,30.5,8.8,40.0,9.3,'1111122,1111122,1111122' 
NDBC,ioos:station:NOAA.NDBC:BURL1:1,2019-02-02T22:00:00Z,28.9060,-89.4290,30.5,8.8,40.0,9.3,'1111122,1111122,1111122' 
NDBC,ioos:station:NOAA.NDBC:BURL1:1,2019-02-02T23:00:00Z,28.9060,-89.4290,30.5,7.7,40.0,8.2,'1111122,1111122,1111122' 
NDBC,ioos:station:NOAA.NDBC:BURL1:1,2019-02-03T00:00:00Z,28.9060,-89.4290,30.5,8.2,40.0,8.8,'1111122,1111122,1111122' 
NDBC,ioos:station:NOAA.NDBC:BURL1:1,2019-02-03T02:00:00Z,28.9060,-89.4290,30.5,8.2,40.0,8.2,'1111122,1111122,1111122' 
NDBC,ioos:station:NOAA.NDBC:BURL1:1,2019-02-03T03:00:00Z,28.9060,-89.4290,30.5,7.2,40.0,7.7,'1111122,1111122,1111122' 
NDBC,ioos:station:NOAA.NDBC:BURL1:1,2019-02-03T04:00:00Z,28.9060,-89.4290,30.5,6.7,40.0,6.7,'1111122,1111122,1111122' 
NDBC,ioos:station:NOAA.NDBC:BURL1:1,2019-02-03T05:00:00Z,28.9060,-89.4290,30.5,7.2,30.0,7.2,'1111122,1111122,1111122' 
NDBC,ioos:station:NOAA.NDBC:BURL1:1,2019-02-03T06:00:00Z,28.9060,-89.4290,30.5,6.7,40.0,7.2,'1111122,1111122,1111122' 
NDBC,ioos:station:NOAA.NDBC:BURL1:1,2019-02-03T07:00:00Z,28.9060,-89.4290,30.5,6.7,40.0,7.2,'1111122,1111122,1111122' 
NDBC,ioos:station:NOAA.NDBC:BURL1:1,2019-02-03T08:00:00Z,28.9060,-89.4290,30.5,6.2,30.0,6.7,'1111122,1111122,1111122' 
NDBC,ioos:station:NOAA.NDBC:BURL1:1,2019-02-03T09:00:00Z,28.9060,-89.4290,30.5,5.1,30.0,5.7,'1111122,1111122,1111122' 
NDBC,ioos:station:NOAA.NDBC:BURL1:1,2019-02-03T10:00:00Z,28.9060,-89.4290,30.5,6.2,30.0,6.7,'1111122,1111122,1111122' 
NDBC,ioos:station:NOAA.NDBC:BURL1:1,2019-02-03T11:00:00Z,28.9060,-89.4290,30.5,5.7,30.0,6.2,'1111122,1111122,1111122' 
NDBC,ioos:station:NOAA.NDBC:BURL1:1,2019-02-03T12:00:00Z,28.9060,-89.4290,30.5,6.7,50.0,7.2,'1111122,1111122,1111122' 
NDBC,ioos:station:NOAA.NDBC:BURL1:1,2019-02-03T14:00:00Z,28.9060,-89.4290,30.5,5.1,40.0,5.7,'1111122,1111122,1111122' 
NDBC,ioos:station:NOAA.NDBC:BURL1:1,2019-02-03T15:00:00Z,28.9060,-89.4290,30.5,4.1,40.0,4.6,'1111122,1111122,1111122' 
NDBC,ioos:station:NOAA.NDBC:BURL1:1,2019-02-03T16:00:00Z,28.9060,-89.4290,30.5,4.1,60.0,4.6,'1111122,1111122,1111122' 
NDBC,ioos:station:NOAA.NDBC:BURL1:1,2019-02-03T17:00:00Z,28.9060,-89.4290,30.5,6.2,60.0,6.2,'1111122,1111122,1111122' 
NDBC,ioos:station:NOAA.NDBC:BURL1:1,2019-02-03T18:00:00Z,28.9060,-89.4290,30.5,5.1,70.0,5.7,'1111122,1111122,1111122' 
NDBC,ioos:station:NOAA.NDBC:BURL1:1,2019-02-03T19:00:00Z,28.9060,-89.4290,30.5,5.1,70.0,5.1,'1111122,1111122,1111122' 
NDBC,ioos:station:NOAA.NDBC:BURL1:1,2019-02-03T20:00:00Z,28.9060,-89.4290,30.5,5.1,70.0,5.1,'1111122,1111122,1111122' 
NDBC,ioos:station:NOAA.NDBC:BURL1:1,2019-02-03T21:00:00Z,28.9060,-89.4290,30.5,5.7,70.0,5.7,'1111122,1111122,1111122' 
NDBC,ioos:station:NOAA.NDBC:BURL1:1,2019-02-03T22:00:00Z,28.9060,-89.4290,30.5,5.7,60.0,6.2,'1111122,1111122,1111122' 
NDBC,ioos:station:NOAA.NDBC:BURL1:1,2019-02-03T23:00:00Z,28.9060,-89.4290,30.5,5.7,70.0,6.2,'1111122,1111122,1111122' 
NDBC,ioos:station:NOAA.NDBC:BURL1:1,2019-02-04T00:00:00Z,28.9060,-89.4290,30.5,5.7,60.0,5.7,'1111122,1111122,1111122' 
NDBC,ioos:station:NOAA.NDBC:BURL1:1,2019-02-04T02:00:00Z,28.9060,-89.4290,30.5,7.7,70.0,7.7,'1111122,1111122,1111122' 
NDBC,ioos:station:NOAA.NDBC:BURL1:1,2019-02-04T03:00:00Z,28.9060,-89.4290,30.5,7.7,80.0,7.7,'1111122,1111122,1111122' 
NDBC,ioos:station:NOAA.NDBC:BURL1:1,2019-02-04T04:00:00Z,28.9060,-89.4290,30.5,7.2,90.0,7.2,'1111122,1111122,1111122' 
NDBC,ioos:station:NOAA.NDBC:BURL1:1,2019-02-04T05:00:00Z,28.9060,-89.4290,30.5,5.7,110.0,6.2,'1111122,1111122,1111122' 
NDBC,ioos:station:NOAA.NDBC:BURL1:1,2019-02-04T06:00:00Z,28.9060,-89.4290,30.5,4.6,130.0,5.1,'1111122,1111122,1111122' 
NDBC,ioos:station:NOAA.NDBC:BURL1:1,2019-02-04T07:00:00Z,28.9060,-89.4290,30.5,4.6,120.0,4.6,'1111122,1111122,1111122' 
NDBC,ioos:station:NOAA.NDBC:BURL1:1,2019-02-04T08:00:00Z,28.9060,-89.4290,30.5,5.7,140.0,6.2,'1111122,1111122,1111122' 
NDBC,ioos:station:NOAA.NDBC:BURL1:1,2019-02-04T09:00:00Z,28.9060,-89.4290,30.5,6.7,120.0,7.2,'1111122,1111122,1111122' 
NDBC,ioos:station:NOAA.NDBC:BURL1:1,2019-02-04T10:00:00Z,28.9060,-89.4290,30.5,5.7,120.0,6.2,'1111122,1111122,1111122' 
NDBC,ioos:station:NOAA.NDBC:BURL1:1,2019-02-04T11:00:00Z,28.9060,-89.4290,30.5,6.7,140.0,6.7,'1111122,1111122,1111122' 
NDBC,ioos:station:NOAA.NDBC:BURL1:1,2019-02-04T12:00:00Z,28.9060,-89.4290,30.5,6.2,160.0,6.2,'1111122,1111122,1111122' 
NDBC,ioos:station:NOAA.NDBC:BURL1:1,2019-02-04T13:00:00Z,28.9060,-89.4290,30.5,4.6,170.0,5.1,'1111122,1111122,1111122' 
NDBC,ioos:station:NOAA.NDBC:BURL1:1,2019-02-04T15:00:00Z,28.9060,-89.4290,30.5,3.6,170.0,3.6,'1111122,1111122,1111122' 
NDBC,ioos:station:NOAA.NDBC:BURL1:1,2019-02-04T16:00:00Z,28.9060,-89.4290,30.5,3.1,170.0,3.6,'1111122,1111122,1111122' 
NDBC,ioos:station:NOAA.NDBC:BURL1:1,2019-02-04T17:00:00Z,28.9060,-89.4290,30.5,3.6,200.0,3.6,'1111122,1111122,1111122' 
NDBC,ioos:station:NOAA.NDBC:BURL1:1,2019-02-04T18:00:00Z,28.9060,-89.4290,30.5,2.6,210.0,3.1,'1111122,1111122,1111122' 
NDBC,ioos:station:NOAA.NDBC:BURL1:1,2019-02-04T19:00:00Z,28.9060,-89.4290,30.5,4.1,230.0,4.1,'1111122,1111122,1111122' 
NDBC,ioos:station:NOAA.NDBC:BURL1:1,2019-02-04T20:00:00Z,28.9060,-89.4290,30.5,5.7,220.0,5.7,'1111122,1111122,1111122' 
NDBC,ioos:station:NOAA.NDBC:BURL1:1,2019-02-04T21:00:00Z,28.9060,-89.4290,30.5,5.7,210.0,5.7,'1111122,1111122,1111122' 
NDBC,ioos:station:NOAA.NDBC:BURL1:1,2019-02-04T22:00:00Z,28.9060,-89.4290,30.5,7.7,170.0,8.2,'1111122,1111122,1111122' 
NDBC,ioos:station:NOAA.NDBC:BURL1:1,2019-02-04T23:00:00Z,28.9060,-89.4290,30.5,6.7,150.0,7.2,'1111122,1111122,1111122' 
NDBC,ioos:station:NOAA.NDBC:BURL1:1,2019-02-05T00:00:00Z,28.9060,-89.4290,30.5,6.2,170.0,6.2,'1111122,1111122,1111122' 
NDBC,ioos:station:NOAA.NDBC:BURL1:1,2019-02-05T02:00:00Z,28.9060,-89.4290,30.5,7.7,170.0,7.7,'1111122,1111122,1111122' 
NDBC,ioos:station:NOAA.NDBC:BURL1:1,2019-02-05T03:00:00Z,28.9060,-89.4290,30.5,6.2,160.0,6.7,'1111122,1111122,1111122' 
NDBC,ioos:station:NOAA.NDBC:BURL1:1,2019-02-05T04:00:00Z,28.9060,-89.4290,30.5,4.1,170.0,4.6,'1111122,1111122,1111122' 
NDBC,ioos:station:NOAA.NDBC:BURL1:1,2019-02-05T05:00:00Z,28.9060,-89.4290,30.5,2.6,120.0,2.6,'1111122,1111122,1111122' 
NDBC,ioos:station:NOAA.NDBC:BURL1:1,2019-02-05T06:00:00Z,28.9060,-89.4290,30.5,6.2,120.0,6.7,'1111122,1111122,1111122' 
NDBC,ioos:station:NOAA.NDBC:BURL1:1,2019-02-05T07:00:00Z,28.9060,-89.4290,30.5,6.7,140.0,7.2,'1111122,1111122,1111122' 
NDBC,ioos:station:NOAA.NDBC:BURL1:1,2019-02-05T08:00:00Z,28.9060,-89.4290,30.5,6.7,140.0,6.7,'1111122,1111122,1111122' 
NDBC,ioos:station:NOAA.NDBC:BURL1:1,2019-02-05T09:00:00Z,28.9060,-89.4290,30.5,7.2,160.0,7.2,'1111122,1111122,1111122' 
NDBC,ioos:station:NOAA.NDBC:BURL1:1,2019-02-05T10:00:00Z,28.9060,-89.4290,30.5,6.2,160.0,6.2,'1111122,1111122,1111122' 
NDBC,ioos:station:NOAA.NDBC:BURL1:1,2019-02-05T11:00:00Z,28.9060,-89.4290,30.5,3.6,150.0,3.6,'1111122,1111122,1111122' 
NDBC,ioos:station:NOAA.NDBC:BURL1:1,2019-02-05T12:00:00Z,28.9060,-89.4290,30.5,3.6,180.0,3.6,'1111122,1111122,1111122' 
NDBC,ioos:station:NOAA.NDBC:BURL1:1,2019-02-05T13:00:00Z,28.9060,-89.4290,30.5,3.1,170.0,3.1,'1111122,1111122,1111122' 
NDBC,ioos:station:NOAA.NDBC:BURL1:1,2019-02-05T14:00:00Z,28.9060,-89.4290,30.5,4.6,160.0,4.6,'1111122,1111122,1111122' 
NDBC,ioos:station:NOAA.NDBC:BURL1:1,2019-02-05T15:00:00Z,28.9060,-89.4290,30.5,5.1,130.0,5.1,'1111122,1111122,1111122' 
NDBC,ioos:station:NOAA.NDBC:BURL1:1,2019-02-05T16:00:00Z,28.9060,-89.4290,30.5,3.6,140.0,3.6,'1111122,1111122,1111122' 
NDBC,ioos:station:NOAA.NDBC:BURL1:1,2019-02-05T17:00:00Z,28.9060,-89.4290,30.5,4.6,140.0,4.6,'1111122,1111122,1111122' 
NDBC,ioos:station:NOAA.NDBC:BURL1:1,2019-02-05T18:00:00Z,28.9060,-89.4290,30.5,5.1,160.0,5.1,'1111122,1111122,1111122' 
NDBC,ioos:station:NOAA.NDBC:BURL1:1,2019-02-05T19:00:00Z,28.9060,-89.4290,30.5,7.2,150.0,7.7,'1111122,1111122,1111122' 
NDBC,ioos:station:NOAA.NDBC:BURL1:1,2019-02-05T20:00:00Z,28.9060,-89.4290,30.5,9.3,150.0,9.3,'1111122,1111122,1111122' 
NDBC,ioos:station:NOAA.NDBC:BURL1:1,2019-02-05T21:00:00Z,28.9060,-89.4290,30.5,8.2,160.0,8.2,'1111122,1111122,1111122' 
NDBC,ioos:station:NOAA.NDBC:BURL1:1,2019-02-05T22:00:00Z,28.9060,-89.4290,30.5,6.2,160.0,6.2,'1111122,1111122,1111122' 
NDBC,ioos:station:NOAA.NDBC:BURL1:1,2019-02-06T00:00:00Z,28.9060,-89.4290,30.5,5.1,160.0,5.1,'1111122,1111122,1111122' 
NDBC,ioos:station:NOAA.NDBC:BURL1:1,2019-02-06T01:00:00Z,28.9060,-89.4290,30.5,5.1,160.0,5.1,'1111122,1111122,1111122' 
NDBC,ioos:station:NOAA.NDBC:BURL1:1,2019-02-06T03:00:00Z,28.9060,-89.4290,30.5,6.7,160.0,6.7,'1111122,1111122,1111122' 
NDBC,ioos:station:NOAA.NDBC:BURL1:1,2019-02-06T05:00:00Z,28.9060,-89.4290,30.5,7.7,160.0,7.7,'1111122,1111122,1111122' 
NDBC,ioos:station:NOAA.NDBC:BURL1:1,2019-02-06T07:00:00Z,28.9060,-89.4290,30.5,7.2,150.0,7.2,'1111122,1111122,1111122' 
NDBC,ioos:station:NOAA.NDBC:BURL1:1,2019-02-06T09:00:00Z,28.9060,-89.4290,30.5,6.2,160.0,6.2,'1111122,1111122,1111122' 
NDBC,ioos:station:NOAA.NDBC:BURL1:1,2019-02-06T10:00:00Z,28.9060,-89.4290,30.5,6.7,170.0,6.7,'1111122,1111122,1111122' 
NDBC,ioos:station:NOAA.NDBC:BURL1:1,2019-02-06T11:00:00Z,28.9060,-89.4290,30.5,7.2,150.0,7.2,'1111122,1111122,1111122' 
NDBC,ioos:station:NOAA.NDBC:BURL1:1,2019-02-06T13:00:00Z,28.9060,-89.4290,30.5,6.7,150.0,7.2,'1111122,1111122,1111122' 
NDBC,ioos:station:NOAA.NDBC:BURL1:1,2019-02-06T15:00:00Z,28.9060,-89.4290,30.5,7.7,150.0,7.7,'1111122,1111122,1111122' 
NDBC,ioos:station:NOAA.NDBC:BURL1:1,2019-02-06T17:00:00Z,28.9060,-89.4290,30.5,6.7,160.0,6.7,'1111122,1111122,1111122' 
NDBC,ioos:station:NOAA.NDBC:BURL1:1,2019-02-06T19:00:00Z,28.9060,-89.4290,30.5,5.7,170.0,5.7,'1111122,1111122,1111122' 
NDBC,ioos:station:NOAA.NDBC:BURL1:1,2019-02-06T21:00:00Z,28.9060,-89.4290,30.5,6.2,160.0,6.2,'1111122,1111122,1111122' 
NDBC,ioos:station:NOAA.NDBC:BURL1:1,2019-02-06T23:00:00Z,28.9060,-89.4290,30.5,5.1,160.0,5.1,'1111122,1111122,1111122' 
NDBC,ioos:station:NOAA.NDBC:BURL1:1,2019-02-07T00:00:00Z,28.9060,-89.4290,30.5,6.7,150.0,6.7,'1111122,1111122,1111122' 
NDBC,ioos:station:NOAA.NDBC:BURL1:1,2019-02-07T02:00:00Z,28.9060,-89.4290,30.5,6.7,150.0,6.7,'1111122,1111122,1111122' 
NDBC,ioos:station:NOAA.NDBC:BURL1:1,2019-02-07T03:00:00Z,28.9060,-89.4290,30.5,8.2,150.0,8.2,'1111122,1111122,1111122' 
NDBC,ioos:station:NOAA.NDBC:BURL1:1,2019-02-07T05:00:00Z,28.9060,-89.4290,30.5,7.2,150.0,7.2,'1111122,1111122,1111122' 
NDBC,ioos:station:NOAA.NDBC:BURL1:1,2019-02-07T06:00:00Z,28.9060,-89.4290,30.5,7.7,150.0,7.7,'1111122,1111122,1111122' 
NDBC,ioos:station:NOAA.NDBC:BURL1:1,2019-02-07T07:00:00Z,28.9060,-89.4290,30.5,9.8,150.0,9.8,'1111122,1111122,1111122' 
NDBC,ioos:station:NOAA.NDBC:BURL1:1,2019-02-07T09:00:00Z,28.9060,-89.4290,30.5,8.2,150.0,8.2,'1111122,1111122,1111122' 
NDBC,ioos:station:NOAA.NDBC:BURL1:1,2019-02-07T11:00:00Z,28.9060,-89.4290,30.5,8.2,160.0,8.2,'1111122,1111122,1111122' 
NDBC,ioos:station:NOAA.NDBC:BURL1:1,2019-02-07T12:00:00Z,28.9060,-89.4290,30.5,7.2,160.0,7.2,'1111122,1111122,1111122' 
NDBC,ioos:station:NOAA.NDBC:BURL1:1,2019-02-07T13:00:00Z,28.9060,-89.4290,30.5,7.7,160.0,7.7,'1111122,1111122,1111122' 
NDBC,ioos:station:NOAA.NDBC:BURL1:1,2019-02-07T14:00:00Z,28.9060,-89.4290,30.5,7.7,160.0,7.7,'1111122,1111122,1111122' 
NDBC,ioos:station:NOAA.NDBC:BURL1:1,2019-02-07T16:00:00Z,28.9060,-89.4290,30.5,5.1,150.0,5.1,'1111122,1111122,1111122' 
NDBC,ioos:station:NOAA.NDBC:BURL1:1,2019-02-07T17:00:00Z,28.9060,-89.4290,30.5,6.2,160.0,6.7,'1111122,1111122,1111122' 
NDBC,ioos:station:NOAA.NDBC:BURL1:1,2019-02-07T19:00:00Z,28.9060,-89.4290,30.5,7.2,160.0,7.2,'1111122,1111122,1111122' 
NDBC,ioos:station:NOAA.NDBC:BURL1:1,2019-02-07T21:00:00Z,28.9060,-89.4290,30.5,6.2,170.0,6.7,'1111122,1111122,1111122' 
NDBC,ioos:station:NOAA.NDBC:BURL1:1,2019-02-07T23:00:00Z,28.9060,-89.4290,30.5,6.7,180.0,6.7,'1111122,1111122,1111122' 
NDBC,ioos:station:NOAA.NDBC:BURL1:1,2019-02-08T00:00:00Z,28.9060,-89.4290,30.5,5.7,170.0,6.2,'1111122,1111122,1111122' 
NDBC,ioos:station:NOAA.NDBC:BURL1:1,2019-02-08T01:00:00Z,28.9060,-89.4290,30.5,4.1,170.0,4.1,'1111122,1111122,1111122' 
NDBC,ioos:station:NOAA.NDBC:BURL1:1,2019-02-08T03:00:00Z,28.9060,-89.4290,30.5,4.6,180.0,4.6,'1111122,1111122,1111122' 
NDBC,ioos:station:NOAA.NDBC:BURL1:1,2019-02-08T05:00:00Z,28.9060,-89.4290,30.5,3.6,190.0,3.6,'1111122,1111122,1111122' 
NDBC,ioos:station:NOAA.NDBC:BURL1:1,2019-02-08T07:00:00Z,28.9060,-89.4290,30.5,3.6,220.0,3.6,'1111122,1111122,1111122' 
NDBC,ioos:station:NOAA.NDBC:BURL1:1,2019-02-08T09:00:00Z,28.9060,-89.4290,30.5,10.8,360.0,11.3,'1111122,1111122,1111122' 
NDBC,ioos:station:NOAA.NDBC:BURL1:1,2019-02-08T11:00:00Z,28.9060,-89.4290,30.5,9.3,20.0,9.8,'1111122,1111122,1111122' 
NDBC,ioos:station:NOAA.NDBC:BURL1:1,2019-02-08T13:00:00Z,28.9060,-89.4290,30.5,11.3,10.0,12.4,'1111122,1111122,1111122' 
NDBC,ioos:station:NOAA.NDBC:BURL1:1,2019-02-08T14:00:00Z,28.9060,-89.4290,30.5,10.8,10.0,11.3,'1111122,1111122,1111122' 
NDBC,ioos:station:NOAA.NDBC:BURL1:1,2019-02-08T15:00:00Z,28.9060,-89.4290,30.5,11.3,10.0,12.4,'1111122,1111122,1111122' 
NDBC,ioos:station:NOAA.NDBC:BURL1:1,2019-02-08T16:00:00Z,28.9060,-89.4290,30.5,12.9,10.0,13.9,'1111122,1111122,1111122' 
NDBC,ioos:station:NOAA.NDBC:BURL1:1,2019-02-08T17:00:00Z,28.9060,-89.4290,30.5,12.9,20.0,14.9,'1111122,1111122,1111122' 
NDBC,ioos:station:NOAA.NDBC:BURL1:1,2019-02-08T18:00:00Z,28.9060,-89.4290,30.5,12.4,20.0,13.9,'1111122,1111122,1111122' 
NDBC,ioos:station:NOAA.NDBC:BURL1:1,2019-02-08T19:00:00Z,28.9060,-89.4290,30.5,12.4,20.0,13.4,'1111122,1111122,1111122' 
NDBC,ioos:station:NOAA.NDBC:BURL1:1,2019-02-08T20:00:00Z,28.9060,-89.4290,30.5,11.3,20.0,13.4,'1111122,1111122,1111122' 
NDBC,ioos:station:NOAA.NDBC:BURL1:1,2019-02-08T22:00:00Z,28.9060,-89.4290,30.5,10.8,20.0,11.8,'1111122,1111122,1111122' 
NDBC,ioos:station:NOAA.NDBC:BURL1:1,2019-02-08T23:00:00Z,28.9060,-89.4290,30.5,11.8,20.0,12.9,'1111122,1111122,1111122' 
NDBC,ioos:station:NOAA.NDBC:BURL1:1,2019-02-09T00:00:00Z,28.9060,-89.4290,30.5,9.8,20.0,10.8,'1111122,1111122,1111122' 
NDBC,ioos:station:NOAA.NDBC:BURL1:1,2019-02-09T01:00:00Z,28.9060,-89.4290,30.5,9.3,20.0,10.3,'1111122,1111122,1111122' 
NDBC,ioos:station:NOAA.NDBC:BURL1:1,2019-02-09T03:00:00Z,28.9060,-89.4290,30.5,10.3,20.0,11.3,'1111122,1111122,1111122' 
NDBC,ioos:station:NOAA.NDBC:BURL1:1,2019-02-09T05:00:00Z,28.9060,-89.4290,30.5,11.3,30.0,11.8,'1111122,1111122,1111122' 
NDBC,ioos:station:NOAA.NDBC:BURL1:1,2019-02-09T07:00:00Z,28.9060,-89.4290,30.5,9.3,30.0,9.8,'1111122,1111122,1111122' 
NDBC,ioos:station:NOAA.NDBC:BURL1:1,2019-02-09T08:00:00Z,28.9060,-89.4290,30.5,10.3,20.0,11.3,'1111122,1111122,1111122' 
NDBC,ioos:station:NOAA.NDBC:BURL1:1,2019-02-09T09:00:00Z,28.9060,-89.4290,30.5,9.3,20.0,10.8,'1111122,1111122,1111122' 
NDBC,ioos:station:NOAA.NDBC:BURL1:1,2019-02-09T10:00:00Z,28.9060,-89.4290,30.5,10.3,20.0,11.3,'1111122,1111122,1111122' 
NDBC,ioos:station:NOAA.NDBC:BURL1:1,2019-02-09T11:00:00Z,28.9060,-89.4290,30.5,8.8,30.0,9.3,'1111122,1111122,1111122' 
NDBC,ioos:station:NOAA.NDBC:BURL1:1,2019-02-09T12:00:00Z,28.9060,-89.4290,30.5,8.8,30.0,9.3,'1111122,1111122,1111122' 
NDBC,ioos:station:NOAA.NDBC:BURL1:1,2019-02-09T13:00:00Z,28.9060,-89.4290,30.5,8.8,40.0,9.8,'1111122,1111122,1111122' 
NDBC,ioos:station:NOAA.NDBC:BURL1:1,2019-02-09T14:00:00Z,28.9060,-89.4290,30.5,9.8,40.0,10.8,'1111122,1111122,1111122' 
NDBC,ioos:station:NOAA.NDBC:BURL1:1,2019-02-09T15:00:00Z,28.9060,-89.4290,30.5,10.8,40.0,11.8,'1111122,1111122,1111122' 
NDBC,ioos:station:NOAA.NDBC:BURL1:1,2019-02-09T16:00:00Z,28.9060,-89.4290,30.5,8.8,40.0,9.3,'1111122,1111122,1111122' 
NDBC,ioos:station:NOAA.NDBC:BURL1:1,2019-02-09T17:00:00Z,28.9060,-89.4290,30.5,9.3,50.0,10.3,'1111122,1111122,1111122' 
NDBC,ioos:station:NOAA.NDBC:BURL1:1,2019-02-09T18:00:00Z,28.9060,-89.4290,30.5,9.3,50.0,9.8,'1111122,1111122,1111122' 
NDBC,ioos:station:NOAA.NDBC:BURL1:1,2019-02-09T19:00:00Z,28.9060,-89.4290,30.5,9.3,40.0,10.3,'1111122,1111122,1111122' 
NDBC,ioos:station:NOAA.NDBC:BURL1:1,2019-02-09T20:00:00Z,28.9060,-89.4290,30.5,9.3,40.0,9.8,'1111122,1111122,1111122' 
NDBC,ioos:station:NOAA.NDBC:BURL1:1,2019-02-09T21:00:00Z,28.9060,-89.4290,30.5,9.3,30.0,9.8,'1111122,1111122,1111122' 
NDBC,ioos:station:NOAA.NDBC:BURL1:1,2019-02-09T22:00:00Z,28.9060,-89.4290,30.5,9.3,40.0,9.3,'1111122,1111122,1111122' 
NDBC,ioos:station:NOAA.NDBC:BURL1:1,2019-02-09T23:00:00Z,28.9060,-89.4290,30.5,9.3,50.0,9.8,'1111122,1111122,1111122' 
NDBC,ioos:station:NOAA.NDBC:BURL1:1,2019-02-10T00:00:00Z,28.9060,-89.4290,30.5,7.7,40.0,8.8,'1111122,1111122,1111122' 
NDBC,ioos:station:NOAA.NDBC:BURL1:1,2019-02-10T01:00:00Z,28.9060,-89.4290,30.5,8.2,30.0,9.3,'1111122,1111122,1111122' 
NDBC,ioos:station:NOAA.NDBC:BURL1:1,2019-02-10T02:00:00Z,28.9060,-89.4290,30.5,7.7,30.0,8.2,'1111122,1111122,1111122' 
NDBC,ioos:station:NOAA.NDBC:BURL1:1,2019-02-10T04:00:00Z,28.9060,-89.4290,30.5,8.2,30.0,8.8,'1111122,1111122,1111122' 
NDBC,ioos:station:NOAA.NDBC:BURL1:1,2019-02-10T05:00:00Z,28.9060,-89.4290,30.5,8.8,50.0,8.8,'1111122,1111122,1111122' 
NDBC,ioos:station:NOAA.NDBC:BURL1:1,2019-02-10T06:00:00Z,28.9060,-89.4290,30.5,7.7,70.0,7.7,'1111122,1111122,1111122' 
NDBC,ioos:station:NOAA.NDBC:BURL1:1,2019-02-10T07:00:00Z,28.9060,-89.4290,30.5,8.2,50.0,8.8,'1111122,1111122,1111122' 
NDBC,ioos:station:NOAA.NDBC:BURL1:1,2019-02-10T08:00:00Z,28.9060,-89.4290,30.5,9.3,70.0,9.8,'1111122,1111122,1111122' 
NDBC,ioos:station:NOAA.NDBC:BURL1:1,2019-02-10T09:00:00Z,28.9060,-89.4290,30.5,8.2,70.0,8.2,'1111122,1111122,1111122' 
NDBC,ioos:station:NOAA.NDBC:BURL1:1,2019-02-10T10:00:00Z,28.9060,-89.4290,30.5,8.2,90.0,8.2,'1111122,1111122,1111122' 
NDBC,ioos:station:NOAA.NDBC:BURL1:1,2019-02-10T11:00:00Z,28.9060,-89.4290,30.5,7.2,90.0,7.7,'1111122,1111122,1111122' 
NDBC,ioos:station:NOAA.NDBC:BURL1:1,2019-02-10T12:00:00Z,28.9060,-89.4290,30.5,6.7,100.0,7.2,'1111122,1111122,1111122' 
NDBC,ioos:station:NOAA.NDBC:BURL1:1,2019-02-10T13:00:00Z,28.9060,-89.4290,30.5,7.2,80.0,7.7,'1111122,1111122,1111122' 
NDBC,ioos:station:NOAA.NDBC:BURL1:1,2019-02-10T14:00:00Z,28.9060,-89.4290,30.5,8.2,100.0,8.8,'1111122,1111122,1111122' 
NDBC,ioos:station:NOAA.NDBC:BURL1:1,2019-02-10T15:00:00Z,28.9060,-89.4290,30.5,9.3,100.0,9.8,'1111122,1111122,1111122' 
NDBC,ioos:station:NOAA.NDBC:BURL1:1,2019-02-10T16:00:00Z,28.9060,-89.4290,30.5,8.2,110.0,8.2,'1111122,1111122,1111122' 
NDBC,ioos:station:NOAA.NDBC:BURL1:1,2019-02-10T17:00:00Z,28.9060,-89.4290,30.5,7.2,110.0,7.2,'1111122,1111122,1111122' 
NDBC,ioos:station:NOAA.NDBC:BURL1:1,2019-02-10T18:00:00Z,28.9060,-89.4290,30.5,5.7,90.0,5.7,'1111122,1111122,1111122' 
NDBC,ioos:station:NOAA.NDBC:BURL1:1,2019-02-10T19:00:00Z,28.9060,-89.4290,30.5,7.7,100.0,7.7,'1111122,1111122,1111122' 
NDBC,ioos:station:NOAA.NDBC:BURL1:1,2019-02-10T20:00:00Z,28.9060,-89.4290,30.5,6.7,100.0,7.2,'1111122,1111122,1111122' 
NDBC,ioos:station:NOAA.NDBC:BURL1:1,2019-02-10T22:00:00Z,28.9060,-89.4290,30.5,6.7,70.0,6.7,'1111122,1111122,1111122' 
NDBC,ioos:station:NOAA.NDBC:BURL1:1,2019-02-10T23:00:00Z,28.9060,-89.4290,30.5,8.2,60.0,8.8,'1111122,1111122,1111122' 
NDBC,ioos:station:NOAA.NDBC:BURL1:1,2019-02-11T00:00:00Z,28.9060,-89.4290,30.5,9.3,80.0,9.3,'1111122,1111122,1111122' 
NDBC,ioos:station:NOAA.NDBC:BURL1:1,2019-02-11T02:00:00Z,28.9060,-89.4290,30.5,9.3,90.0,9.3,'1111122,1111122,1111122' 
NDBC,ioos:station:NOAA.NDBC:BURL1:1,2019-02-11T03:00:00Z,28.9060,-89.4290,30.5,8.8,100.0,8.8,'1111122,1111122,1111122' 
NDBC,ioos:station:NOAA.NDBC:BURL1:1,2019-02-11T04:00:00Z,28.9060,-89.4290,30.5,7.7,110.0,7.7,'1111122,1111122,1111122' 
NDBC,ioos:station:NOAA.NDBC:BURL1:1,2019-02-11T05:00:00Z,28.9060,-89.4290,30.5,7.2,120.0,7.2,'1111122,1111122,1111122' 
NDBC,ioos:station:NOAA.NDBC:BURL1:1,2019-02-11T06:00:00Z,28.9060,-89.4290,30.5,8.2,120.0,8.2,'1111122,1111122,1111122' 